• In Hungary
  • List of Countries
  • For 7 days
  • Water Temperature
  • Satellite Maps
  • Weather Map
  • News
  • Weather Widgets
  • user-avatar
    Login

    Hourly Weather Adelkino

    Today, 16 November, Friday

    Time Temperature Precipitation Wind Pressure Humidity
    00:00 -6°C° 0 mm 1 mps 751 mmHg 32%
    01:00 -6°C° 0 mm 1 mps 751 mmHg 32%
    02:00 -6°C° 0 mm 1 mps 751 mmHg 33%
    03:00 -6°C° 0 mm 1 mps 751 mmHg 33%
    04:00 -7°C° 0 mm 1 mps 752 mmHg 33%
    05:00 -7°C° 0 mm 1 mps 752 mmHg 33%
    06:00 -7°C° 0 mm 1 mps 752 mmHg 33%
    07:00 -7°C° 0 mm 1 mps 752 mmHg 33%
    08:00 -6°C° 0 mm 1 mps 752 mmHg 32%
    09:00 -6°C° 0 mm 1 mps 752 mmHg 31%
    10:00 -4°C° 0 mm 1 mps 752 mmHg 30%
    11:00 -3°C° 0 mm 1 mps 752 mmHg 28%
    12:00 -2°C° 0 mm 1 mps 752 mmHg 27%
    13:00 -2°C° 0 mm 1 mps 752 mmHg 25%
    14:00 -2°C° 0 mm 1 mps 751 mmHg 25%
    15:00 -2°C° 0 mm 1 mps 751 mmHg 26%
    16:00 -5°C° 0 mm 2 mps 751 mmHg 27%
    17:00 -5°C° 0 mm 2 mps 751 mmHg 27%
    18:00 -5°C° 0 mm 2 mps 750 mmHg 27%
    19:00 -6°C° 0 mm 2 mps 750 mmHg 27%
    20:00 -6°C° 0 mm 2 mps 750 mmHg 27%
    21:00 -6°C° 0 mm 2 mps 749 mmHg 27%
    22:00 -7°C° 0 mm 3 mps 749 mmHg 27%
    23:00 -7°C° 0 mm 3 mps 748 mmHg 26%

    Tomorrow, 17 November, Saturday

    Time Temperature Precipitation Wind Pressure Humidity
    00:00 -7°C° 0 mm 3 mps 748 mmHg 26%
    01:00 -8°C° 0 mm 4 mps 747 mmHg 26%
    02:00 -8°C° 0 mm 4 mps 747 mmHg 26%
    03:00 -8°C° 0 mm 4 mps 746 mmHg 26%
    04:00 -8°C° 0 mm 4 mps 746 mmHg 25%
    05:00 -8°C° 0 mm 4 mps 745 mmHg 26%
    06:00 -8°C° 0 mm 5 mps 745 mmHg 27%
    07:00 -8°C° 0 mm 5 mps 744 mmHg 28%
    08:00 -7°C° 0 mm 5 mps 744 mmHg 32%
    09:00 -7°C° 0 mm 4 mps 744 mmHg 35%
    10:00 -7°C° 0 mm 4 mps 743 mmHg 39%
    11:00 -5°C° 0 mm 4 mps 743 mmHg 42%
    12:00 -5°C° 0 mm 4 mps 742 mmHg 45%
    13:00 -4°C° 0 mm 4 mps 742 mmHg 49%
    14:00 -4°C° 0 mm 4 mps 742 mmHg 51%
    15:00 -5°C° 0 mm 3 mps 741 mmHg 54%
    16:00 -5°C° 0 mm 3 mps 741 mmHg 57%
    17:00 -5°C° 0 mm 3 mps 740 mmHg 58%
    18:00 -5°C° 0 mm 3 mps 740 mmHg 59%
    19:00 -5°C° 0 mm 3 mps 740 mmHg 59%
    20:00 -5°C° 0 mm 3 mps 739 mmHg 59%
    21:00 -5°C° 0 mm 3 mps 739 mmHg 59%
    22:00 -5°C° 0 mm 3 mps 738 mmHg 59%
    23:00 -5°C° 0 mm 3 mps 738 mmHg 60%

    Day after tomorrow, 18 November, Sunday

    Time Temperature Precipitation Wind Pressure Humidity
    00:00 -5°C° 0 mm 3 mps 738 mmHg 60%
    01:00 -5°C° 0 mm 4 mps 737 mmHg 61%
    02:00 -5°C° 0 mm 4 mps 737 mmHg 60%
    03:00 -5°C° 0 mm 4 mps 737 mmHg 60%
    04:00 -5°C° 0 mm 4 mps 736 mmHg 59%
    05:00 -5°C° 0 mm 4 mps 736 mmHg 57%
    06:00 -5°C° 0 mm 4 mps 736 mmHg 54%
    07:00 -5°C° 0 mm 4 mps 736 mmHg 52%
    08:00 -5°C° 0 mm 4 mps 736 mmHg 49%
    09:00 -5°C° 0 mm 4 mps 736 mmHg 46%
    10:00 -4°C° 0 mm 4 mps 736 mmHg 43%
    11:00 -4°C° 0 mm 4 mps 736 mmHg 41%
    12:00 -3°C° 0 mm 4 mps 736 mmHg 40%
    13:00 -3°C° 0 mm 4 mps 736 mmHg 38%
    14:00 -3°C° 0 mm 4 mps 736 mmHg 38%
    15:00 -2°C° 0 mm 3 mps 737 mmHg 39%
    16:00 -2°C° 0 mm 3 mps 737 mmHg 40%
    17:00 -4°C° 0 mm 3 mps 737 mmHg 40%
    18:00 -4°C° 0 mm 3 mps 737 mmHg 40%
    19:00 -5°C° 0 mm 3 mps 737 mmHg 40%
    20:00 -5°C° 0 mm 3 mps 737 mmHg 40%
    21:00 -4°C° 0 mm 2 mps 738 mmHg 40%
    22:00 -4°C° 0 mm 2 mps 738 mmHg 39%
    23:00 -5°C° 0 mm 2 mps 738 mmHg 39%

    19 November, Monday

    Time Temperature Precipitation Wind Pressure Humidity
    00:00 -5°C° 0 mm 2 mps 738 mmHg 39%
    01:00 -5°C° 0 mm 2 mps 739 mmHg 39%
    02:00 -5°C° 0 mm 2 mps 739 mmHg 39%
    03:00 -3°C° 0 mm 1 mps 739 mmHg 39%
    04:00 -3°C° 0 mm 1 mps 739 mmHg 39%
    05:00 -3°C° 0 mm 1 mps 740 mmHg 39%
    06:00 -4°C° 0 mm 1 mps 740 mmHg 39%
    07:00 -4°C° 0 mm 1 mps 740 mmHg 39%
    08:00 -3°C° 0 mm 1 mps 741 mmHg 38%
    09:00 -3°C° 0 mm 1 mps 741 mmHg 37%
    10:00 -3°C° 0 mm 1 mps 741 mmHg 36%
    11:00 -2°C° 0 mm 1 mps 742 mmHg 35%
    12:00 -1°C° 0 mm 1 mps 742 mmHg 34%
    13:00 0°C° 0 mm 1 mps 742 mmHg 33%
    14:00 -1°C° 0 mm 1 mps 743 mmHg 36%
    15:00 -1°C° 0 mm 1 mps 743 mmHg 39%
    16:00 -2°C° 0 mm 1 mps 743 mmHg 42%
    17:00 -4°C° 0 mm 2 mps 743 mmHg 47%
    18:00 -4°C° 0 mm 2 mps 743 mmHg 52%
    19:00 -5°C° 0 mm 2 mps 743 mmHg 57%
    20:00 -5°C° 0 mm 2 mps 743 mmHg 64%
    21:00 -5°C° 0 mm 2 mps 743 mmHg 72%
    22:00 -4°C° 0 mm 2 mps 743 mmHg 79%
    23:00 -5°C° 0 mm 2 mps 743 mmHg 84%

    20 November, Tuesday

    Time Temperature Precipitation Wind Pressure Humidity
    00:00 -5°C° 0 mm 2 mps 743 mmHg 89%
    01:00 -5°C° 0 mm 2 mps 743 mmHg 93%
    02:00 -4°C° 0 mm 2 mps 743 mmHg 94%
    03:00 -4°C° 0 mm 2 mps 744 mmHg 95%
    04:00 -4°C° 0 mm 2 mps 744 mmHg 96%
    05:00 -4°C° 0 mm 2 mps 744 mmHg 97%
    06:00 -4°C° 0 mm 2 mps 744 mmHg 97%
    07:00 -4°C° 0 mm 2 mps 744 mmHg 97%
    08:00 -3°C° 0 mm 2 mps 744 mmHg 96%
    09:00 -3°C° 0 mm 2 mps 744 mmHg 95%
    10:00 -3°C° 0 mm 2 mps 744 mmHg 94%
    11:00 -3°C° 0 mm 2 mps 744 mmHg 91%
    12:00 -3°C° 0 mm 2 mps 744 mmHg 88%
    13:00 -2°C° 0 mm 2 mps 744 mmHg 85%
    14:00 -3°C° 0 mm 2 mps 744 mmHg 86%
    15:00 -3°C° 0 mm 2 mps 744 mmHg 87%
    16:00 -3°C° 0 mm 2 mps 744 mmHg 89%
    17:00 -4°C° 0 mm 2 mps 744 mmHg 89%
    18:00 -4°C° 0 mm 2 mps 744 mmHg 89%
    19:00 -4°C° 0 mm 2 mps 744 mmHg 89%
    20:00 -2°C° 0 mm 1 mps 744 mmHg 88%
    21:00 -2°C° 0 mm 1 mps 743 mmHg 87%
    22:00 -2°C° 0 mm 1 mps 743 mmHg 85%
    23:00 -2°C° 0 mm 1 mps 743 mmHg 84%

    21 November, Wednesday

    Time Temperature Precipitation Wind Pressure Humidity
    00:00 -2°C° 0 mm 1 mps 743 mmHg 84%
    01:00 -2°C° 0 mm 1 mps 743 mmHg 83%
    02:00 -4°C° 0 mm 2 mps 743 mmHg 82%
    03:00 -4°C° 0 mm 2 mps 743 mmHg 81%
    04:00 -4°C° 0 mm 2 mps 742 mmHg 80%
    05:00 -4°C° 0 mm 2 mps 742 mmHg 80%
    06:00 -5°C° 0 mm 2 mps 742 mmHg 81%
    07:00 -5°C° 0 mm 2 mps 742 mmHg 82%
    08:00 -5°C° 0 mm 2 mps 742 mmHg 80%
    09:00 -5°C° 0 mm 2 mps 741 mmHg 79%
    10:00 -5°C° 0 mm 2 mps 741 mmHg 78%
    11:00 -4°C° 0 mm 2 mps 741 mmHg 75%
    12:00 -5°C° 0 mm 3 mps 741 mmHg 73%
    13:00 -5°C° 0 mm 3 mps 741 mmHg 70%
    14:00 -5°C° 0 mm 3 mps 740 mmHg 70%
    15:00 -5°C° 0 mm 3 mps 740 mmHg 70%
    16:00 -5°C° 0 mm 3 mps 740 mmHg 70%
    17:00 -6°C° 0 mm 3 mps 740 mmHg 70%
    18:00 -6°C° 0 mm 3 mps 739 mmHg 70%
    19:00 -6°C° 0 mm 3 mps 739 mmHg 70%
    20:00 -6°C° 0 mm 3 mps 739 mmHg 71%
    21:00 -5°C° 0 mm 2 mps 738 mmHg 72%
    22:00 -5°C° 0 mm 2 mps 738 mmHg 72%
    23:00 -5°C° 0 mm 2 mps 738 mmHg 74%
    Show more